Location: Risskov
(56.1972°N, 10.2480°E)
Time: 23:30:21
(UTC+00:00)

Cosmos 405 - Pass Details

Date: 05 July 2020
Orbit: 450 x 465 km, 81.3° (Epoch: 14 August)

Event Time Altitude Azimuth Distance (km) Brightness Sun altitude
Rises 23:20:47 0° 344° (NNW) 2,516 8.4 -11.1°
Reaches altitude 10° 23:22:54 10° 343° (NNW) 1,633 7.1 -11.1°
Maximum altitude 23:26:28 78° 257° (WSW) 482 3.0 -11.1°
Enters shadow 23:29:03 17° 173° (S) 1,232 4.5 -11.1°
